Location: Melara
(45.0500°N, 11.1833°E)
Time: 22:53:46
(UTC+00:00)

Cosmos 1140 Rocket - Pass Details

Date: 26 May 2022
Orbit: 743 x 767 km, 74.1° (Epoch: 02 July)

Event Time Altitude Azimuth Distance (km) Brightness Sun altitude
Rises 02:56:44 0° 333° (NNW) 3,246 6.9 -6.5°
Reaches altitude 10° 02:59:12 10° 327° (NNW) 2,316 6.1 -6.1°
Maximum altitude 03:04:11 46° 256° (WSW) 1,032 3.8 -5.4°
Drops below altitude 10° 03:09:08 10° 185° (S) 2,295 5.6 -4.7°
Sets 03:11:34 0° 179° (S) 3,214 6.4 -4.4°
